This demonstration page uses our WeatherBlox Daily Observations layout. Learn more.

Left ArrowRight Arrow

39.95238, -75.16362

Hourly Observations for November 14, 2019

Temp ( °F °C ) Dew Point ( °F °C ) Humidity (%) Winds ( mph kmh ) Pressure ( in mb ) Visibility ( mi km ) Precip ( " mm )
12:54 am 00:54 Cloudy 30 -1.1 12 -11.1 47 47 ESE 8 13 30.45 1031 10 16 0.00 0.00
1:54 am 01:54 Cloudy 28 -2.2 12 -11.1 51 51 ESE 7 11 30.44 1031 10 16 0.00 0.00
2:54 am 02:54 Mostly Clear 27 -2.8 12 -11.1 53 53 SE 6 9 30.44 1031 10 16 0.00 0.00
3:54 am 03:54 Partly Cloudy 27 -2.8 12 -11.1 53 53 SE 5 7 30.43 1030 10 16 0.00 0.00
4:54 am 04:54 Mostly Cloudy 28 -2.2 12 -11.1 51 51 SE 5 7 30.42 1030 10 16 0.00 0.00
5:54 am 05:54 Mostly Cloudy 27 -2.8 12 -11.1 53 53 Calm 30.43 1031 10 16 0.00 0.00
6:54 am 06:54 Mostly Cloudy 27 -2.8 12 -11.1 53 53 ESE 3 6 30.44 1031 10 16 0.00 0.00
7:54 am 07:54 Mostly Cloudy 31 -0.6 14 -10 49 49 E 3 6 30.46 1031 10 16 0.00 0.00
8:54 am 08:54 Mostly Cloudy 35 1.7 18 -7.8 50 50 SSW 7 11 30.45 1031 10 16 0.00 0.00
9:54 am 09:54 Mostly Cloudy 37 2.8 19 -7.2 48 48 SSW 9 15 30.45 1031 10 16 0.00 0.00
10:54 am 10:54 Mostly Cloudy 40 4.4 22 -5.6 49 49 SSW 12 19 30.42 1030 10 16 0.00 0.00
11:54 am 11:54 Mostly Cloudy 42 5.6 21 -6.1 43 43 SSW 12 19 30.40 1029 10 16 0.00 0.00
12:54 pm 12:54 Mostly Cloudy 43 6.1 19 -7.2 38 38 S 12 19 30.37 1028 10 16 0.00 0.00
1:54 pm 13:54 Mostly Cloudy 44 6.7 21 -6.1 40 40 SW 12 19 30.34 1028 10 16 0.00 0.00
2:54 pm 14:54 Mostly Cloudy 44 6.7 21 -6.1 40 40 SSW 13 20 30.34 1028 10 16 0.00 0.00
3:54 pm 15:54 Mostly Cloudy 43 6.1 22 -5.6 43 43 SSW 12 19 30.34 1028 10 16 0.00 0.00
4:54 pm 16:54 Mostly Cloudy 42 5.6 24 -4.4 49 49 SW 9 15 30.34 1028 10 16 0.00 0.00
5:54 pm 17:54 Mostly Cloudy 41 5 25 -3.9 53 53 S 7 11 30.33 1027 10 16 0.00 0.00
6:54 pm 18:54 Mostly Cloudy 41 5 26 -3.3 55 55 SSW 8 13 30.32 1027 10 16 0.00 0.00
7:54 pm 19:54 Mostly Cloudy 40 4.4 26 -3.3 58 58 SSW 6 9 30.32 1027 10 16 0.00 0.00
8:54 pm 20:54 Mostly Cloudy 40 4.4 27 -2.8 60 60 WSW 7 11 30.33 1027 10 16 0.00 0.00
9:54 pm 21:54 Mostly Cloudy 39 3.9 29 -1.7 67 67 SSW 6 9 30.33 1027 10 16 0.00 0.00
10:54 pm 22:54 Mostly Cloudy 38 3.3 28 -2.2 68 68 W 3 6 30.33 1027 10 16 0.00 0.00
11:54 pm 23:54 Partly Cloudy 37 2.8 27 -2.8 67 67 WSW 3 6 30.31 1027 10 16 0.00 0.00

Powered by AerisWeather